GW0489 Weather Reports


Display with metric or nautical units.
time (UTC)temp
F
wind
direction
speed
MPH
gust
MPH
rain 1hr
in
rain 24hr
in
rain mn
in
humidity
%
barometer
mb
20260503223046 73 149 2.0 7.0 0.00 0.00 0.00 53 1017.7
20260503221551 73 221 1.0 9.0 0.00 0.00 0.00 52 1017.7
20260503220108 73 181 2.0 9.0 0.00 0.00 0.00 46 1017.7
20260503214547 73 0 3.0 11.0 0.00 0.00 0.00 47 1017.9
20260503213053 73 184 3.0 8.0 0.00 0.00 0.00 45 1018.1
20260503211601 73 197 2.0 7.0 0.00 0.00 0.00 47 1018.2
20260503210049 73 157 3.0 10.0 0.00 0.00 0.00 42 1018.4
20260503204555 73 246 2.0 9.0 0.00 0.00 0.00 45 1018.4
20260503203047 73 113 2.0 6.0 0.00 0.00 0.00 48 1018.7
20260503201551 73 0 0.0 0.0 0.00 0.00 0.00 43 1018.8
20260503200049 73 0 0.0 2.0 0.00 0.00 0.00 35 1018.9
20260503194555 73 0 0.0 4.0 0.00 0.00 0.00 36 1019.2
20260503193057 72 195 0.0 4.0 0.00 0.00 0.00 35 1019.6
20260503191547 72 86 0.0 2.0 0.00 0.00 0.00 36 1019.6
20260503190053 72 304 0.0 4.0 0.00 0.00 0.00 39 1019.9
20260503184548 71 333 1.0 4.0 0.00 0.00 0.00 41 1020.1
20260503183045 71 31 0.0 5.0 0.00 0.00 0.00 39 1020.4
20260503181618 71 61 4.0 8.0 0.00 0.00 0.00 42 1020.6
20260503180054 70 24 3.0 9.0 0.00 0.00 0.00 47 1020.7
20260503174554 70 29 5.0 13.0 0.00 0.00 0.00 41 1020.6
20260503173055 70 11 8.0 12.0 0.00 0.00 0.00 42 1020.8
20260503171545 70 15 9.0 12.0 0.00 0.00 0.00 44 1021.1
20260503120107 60 5 6.0 9.0 0.00 0.00 0.00 72 1020.8
20260503081554 62 31 6.0 10.0 0.00 0.61 0.00 68 1019.3
20260503071557 61 5 7.0 10.0 0.00 0.79 0.00 67 1018.9
20260503060111 63 324 9.0 14.0 0.00 1.01 0.00 65 1018.9
20260503054546 63 342 8.0 13.0 0.00 1.13 0.00 65 1018.8
20260503053048 63 360 8.0 12.0 0.00 1.13 0.00 63 1018.8
20260503051550 63 339 5.0 10.0 0.00 1.13 0.00 63 1018.8
20260503050050 63 342 6.0 12.0 0.00 1.13 0.00 64 1018.7
20260503044618 64 311 9.0 13.0 0.00 1.13 1.13 64 1018.4
20260503043045 64 304 9.0 12.0 0.00 1.13 1.13 63 1018.5
20260503041550 64 306 10.0 12.0 0.00 1.13 1.13 61 1018.3
20260503040048 64 311 9.0 12.0 0.00 1.13 1.13 64 1018.2
20260503034548 65 308 10.0 13.0 0.00 1.24 1.13 63 1018.2
20260503033051 65 312 8.0 11.0 0.00 1.24 1.13 63 1018.1
20260503031545 65 335 10.0 14.0 0.00 1.24 1.13 60 1017.9
20260503030057 65 317 10.0 12.0 0.00 1.24 1.13 60 1017.8
20260503024556 65 342 9.0 13.0 0.00 1.46 1.13 60 1017.7
20260503023049 66 341 10.0 14.0 0.00 1.46 1.13 57 1017.5
20260503021547 66 341 10.0 15.0 0.00 1.46 1.13 59 1017.4
20260503020046 66 327 9.0 14.0 0.00 1.46 1.13 58 1017.3
20260503014554 67 327 11.0 15.0 0.00 1.84 1.13 55 1017.0
20260503013052 67 317 11.0 15.0 0.00 1.84 1.13 56 1016.7
20260503011549 68 321 11.0 15.0 0.00 1.84 1.13 55 1016.5
20260503010051 68 338 12.0 15.0 0.00 1.84 1.13 53 1016.2
20260503004610 68 334 11.0 15.0 0.00 1.87 1.13 53 1015.8
20260503003050 69 317 13.0 17.0 0.00 1.87 1.13 50 1015.6
20260503001551 69 313 14.0 18.0 0.00 1.87 1.13 50 1015.3
20260503000052 70 315 14.0 18.0 0.00 1.87 1.13 50 1015.0
20260502234601 71 324 13.0 19.0 0.00 2.03 1.13 58 1014.7
20260502233050 71 350 15.0 20.0 0.00 2.03 1.13 55 1014.4
20260502231552 71 337 15.0 19.0 0.00 2.03 1.13 53 1014.3
20260502230049 71 326 13.0 17.0 0.00 2.03 1.13 59 1014.1
20260502224549 71 326 14.0 19.0 0.00 2.03 1.13 58 1014.0